Regional Weather Roundup
Issued by NWS

Home | Current Version | Previous Version | Text Only | Print | Product List | Glossary Off
Versions: 1 2 3 4 5 6 7 8 9 10 11 12 13 14 15 16 17 18 19 20 21 22 23 24 25 26 27 28 29 30 31 32 33 34 35 36 37 38 39 40 41 42 43 44 45 46 47 48 49 50

570
ASUS45 KBOI 040710
RWRID

IDAHO REGIONAL WEATHER ROUNDUP
NATIONAL WEATHER SERVICE BOISE ID
1200 AM MST SUN DEC 04 2016

NOTE: "FAIR" INDICATES FEW OR NO CLOUDS BELOW 12000 FEET
WITH NO SIGNIFICANT WEATHER AND/OR OBSTRUCTIONS TO VISIBILITY

IDZ012-014-040800-
SOUTHWEST IDAHO


CITY           SKY/WX    TMP DP  RH WIND       PRES   REMARKS
BOISE          PTCLDY    35  28  75 SE10      30.15F WCI  27
CALDWELL       PTCLDY    33  26  75 SE7       30.17F WCI  27
MOUNTAIN HOME  CLEAR     28  25  89 E8        30.17F WCI  20
$$

IDZ016-017-040800-
SOUTHCENTRAL IDAHO


CITY           SKY/WX    TMP DP  RH WIND       PRES   REMARKS
BURLEY         PTCLDY    33  24  69 SW12      30.19R WCI  24
JEROME         PTCLDY    30  23  75 S8        30.18S WCI  22
TWIN FALLS     PTCLDY    31  20  63 S14       30.18S WCI  21
$$

IDZ019>023-040800-
SOUTHEAST IDAHO


CITY           SKY/WX    TMP DP  RH WIND       PRES   REMARKS
IDAHO FALLS    CLOUDY    29  24  82 SW12      30.13F WCI  19
POCATELLO      CLOUDY    35  24  64 S16       30.16F WCI  25
REXBURG        CLOUDY    28  25  88 SW9       30.12S WCI  19
$$

IDZ006-010-011-018-031-032-040800-
CENTRAL IDAHO MOUNTAINS


CITY           SKY/WX    TMP DP  RH WIND       PRES   REMARKS
MCCALL         CLOUDY    27  24  89 CALM      30.08F
HAILEY         PTCLDY    21  18  86 NW7       30.14F WCI  13
STANLEY          N/A     21  12  68 CALM      30.10S
SALMON         PTCLDY    23  18  80 CALM      30.06F
CHALLIS        PTCLDY    24  17  74 CALM      30.06F
$$

IDZ002-004-006-007-026-040800-
NORTHERN IDAHO


CITY           SKY/WX    TMP DP  RH WIND       PRES   REMARKS
LEWISTON       CLOUDY    43  32  65 S7        30.08F
LOWELL           N/A     36  33  89 CALM      30.15F
COEUR D`ALENE  CLOUDY    38  32  79 S14       29.99F WCI  30
MULLAN PASS    LGT SNOW  24  22  91 SW9G22    29.90F FOG     WCI  14
$$




USA.gov is the U.S. government's official web portal to all federal, state and local government web resources and services.